Change the Weather History Date:

Wednesday, December 5, 2012

  Actual Average Record
Temperature  
Mean Temperature 58 °F -  
Max Temperature 73 °F 68 °F 82 °F (2001)
Min Temperature 44 °F 46 °F 44 °F (2007)
Degree Days  
Heating Degree Days 6    
Growing Degree Days 8 (Base 50)    
Moisture  
Dew Point 40 °F    
Average Humidity 53    
Maximum Humidity 81    
Minimum Humidity 27    
Precipitation  
Precipitation 0.00 in - - ()
Sea Level Pressure  
Sea Level Pressure 30.00 in    
Wind  
Wind Speed 5 mph ()    
Max Wind Speed 13 mph    
Max Gust Speed -    
Visibility 1.3 miles    
Events      
Averages and records for this station are not official NWS values.
T = Trace of Precipitation, MM = Missing Value Source: Averaged Metar Reports

Daily Weather History Graph

Daily Weather History Graph

Search for Another Location

Airport or City:

Trip Planner

Search our weather history database for the weather conditions in past years. The results will help you decide how hot, cold, wet, or windy it might be!

Date:

Astronomy

Dec. 05, 2012 Rise Set
Actual Time 6:59 AM IST 5:24 PM IST
Civil Twilight 6:34 AM IST 5:50 PM IST
Nautical Twilight 6:04 AM IST 6:19 PM IST
Astronomical Twilight 5:36 AM IST 6:48 PM IST
Moon 11:23 PM IST (12/5) 11:29 AM IST (12/5)
Length of Visible Light 11h 16m
Length of Day
10h 24m
Waning Gibbous, 64% of the Moon is Illuminated
Dec 5
Waning Gibbous
Dec 6
Last Quarter
Dec 13
New
Dec 20
First Quarter
Dec 28
Full

Hourly Weather History & Observations

Time (IST) Temp. Windchill Dew Point Humidity Pressure Visibility Wind Dir Wind Speed Gust Speed Precip Events Conditions
12:00 AM 53.6 °F - 42.8 °F 67% 30.01 in 0.8 mi WSW 3.5 mph - N/A   Smoke
12:30 AM 53.6 °F - 42.8 °F 67% 29.98 in 0.9 mi WSW 4.6 mph - N/A   Smoke
1:30 AM 51.8 °F - 41.0 °F 67% 29.98 in 0.9 mi SW 4.6 mph - N/A   Smoke
2:00 AM 51.8 °F - 41.0 °F 67% 29.98 in 0.9 mi SW 3.5 mph - N/A   Smoke
2:30 AM 51.8 °F - 41.0 °F 67% 29.98 in 0.9 mi West 3.5 mph - N/A   Smoke
3:00 AM 50.0 °F - 41.0 °F 71% 29.98 in 0.9 mi WSW 3.5 mph - N/A   Smoke
3:30 AM 50.0 °F - 39.2 °F 66% 29.98 in 0.9 mi West 3.5 mph - N/A   Smoke
4:00 AM 50.0 °F - 39.2 °F 66% 29.98 in 0.9 mi West 4.6 mph - N/A   Smoke
4:30 AM 50.0 °F - 39.2 °F 66% 29.98 in 1.1 mi West 3.5 mph - N/A   Smoke
5:00 AM 50.0 °F - 39.2 °F 66% 29.95 in 1.1 mi West 3.5 mph - N/A   Smoke
5:30 AM 50.0 °F - 39.2 °F 66% 29.95 in 1.1 mi West 3.5 mph - N/A   Smoke
6:00 AM 50.0 °F - 39.2 °F 66% 29.98 in 1.1 mi West 4.6 mph - N/A   Smoke
6:30 AM 50.0 °F - 39.2 °F 66% 29.98 in 1.1 mi West 5.8 mph - N/A   Smoke
7:00 AM 46.4 °F 44.3 °F 39.2 °F 76% 30.01 in 1.1 mi West 4.6 mph - N/A   Mist
7:30 AM 44.6 °F 42.2 °F 39.2 °F 81% 30.01 in 1.1 mi West 4.6 mph - N/A   Mist
8:30 AM 48.2 °F - 41.0 °F 76% 30.01 in 1.2 mi West 4.6 mph - N/A   Mist
9:00 AM 51.8 °F - 41.0 °F 67% 30.04 in 1.4 mi West 4.6 mph - N/A   Smoke
9:30 AM 53.6 °F - 41.0 °F 62% 30.04 in 1.4 mi West 8.1 mph - N/A   Smoke
10:00 AM 57.2 °F - 39.2 °F 51% 30.04 in 1.5 mi West 5.8 mph - N/A   Smoke
10:30 AM 59.0 °F - 39.2 °F 48% 30.04 in 1.5 mi WNW 9.2 mph - N/A   Smoke
11:00 AM 62.6 °F - 39.2 °F 42% 30.04 in 1.5 mi WNW 8.1 mph - N/A   Smoke
11:30 AM 64.4 °F - 39.2 °F 40% 30.04 in 1.5 mi WNW 9.2 mph - N/A   Smoke
12:30 PM 69.8 °F - 39.2 °F 33% 30.01 in - WNW 11.5 mph - N/A   Smoke
1:00 PM 69.8 °F - 39.2 °F 33% 30.01 in - WNW 11.5 mph - N/A   Smoke
1:30 PM 69.8 °F - 39.2 °F 33% 30.01 in - WNW 9.2 mph - N/A   Smoke
2:00 PM 73.4 °F - 37.4 °F 27% 29.98 in - West 12.7 mph - N/A   Haze
2:30 PM 73.4 °F - 37.4 °F 27% 29.98 in - West 10.4 mph - N/A   Haze
3:00 PM 73.4 °F - 41.0 °F 31% 29.98 in 2.2 mi West 9.2 mph - N/A   Haze
3:30 PM 73.4 °F - 39.2 °F 29% 29.98 in 2.2 mi West 9.2 mph - N/A   Haze
4:00 PM 73.4 °F - 39.2 °F 29% 29.95 in 2.2 mi West 10.4 mph - N/A   Haze
4:30 PM 71.6 °F - 39.2 °F 31% 29.98 in 2.2 mi SW 9.2 mph - N/A   Haze
5:00 PM 68.0 °F - 39.2 °F 35% 29.98 in 2.2 mi West 6.9 mph - N/A   Haze
5:30 PM 66.2 °F - 39.2 °F 37% 29.98 in 2.2 mi West 5.8 mph - N/A   Haze
6:00 PM 64.4 °F - 39.2 °F 40% 29.98 in - West 4.6 mph - N/A   Haze
8:00 PM 60.8 °F - 39.2 °F 45% 29.98 in 1.3 mi WSW 2.3 mph - N/A   Smoke
8:30 PM 59.0 °F - 39.2 °F 48% 30.01 in 1.2 mi SSW 3.5 mph - N/A   Smoke
9:00 PM 59.0 °F - 39.2 °F 48% 30.01 in 1.1 mi SSW 2.3 mph - N/A   Smoke
9:30 PM 59.0 °F - 41.0 °F 51% 30.01 in 1.1 mi Calm Calm - N/A   Smoke
10:00 PM 59.0 °F - 42.8 °F 55% 30.01 in 1.1 mi Calm Calm - N/A   Smoke
10:30 PM 57.2 °F - 41.0 °F 55% 30.01 in 1.0 mi Calm Calm - N/A   Smoke
11:00 PM 57.2 °F - 41.0 °F 55% 30.01 in 1.0 mi Calm Calm - N/A   Smoke